Weather History for KROW - September, 2013

Change the Weather History Date:

Saturday, September 21, 2013

  Actual Average Record
Temperature  
Mean Temperature 70 °F 70 °F  
Max Temperature 79 °F 84 °F 97 °F (1998)
Min Temperature 61 °F 57 °F 40 °F (1913)
Degree Days  
Heating Degree Days 0 1  
Month to date heating degree days 0 4  
Since 1 July heating degree days 0 4  
Cooling Degree Days 5 6  
Month to date cooling degree days 228 186  
Year to date cooling degree days 2092 1710  
Growing Degree Days 20 (Base 50)    
Moisture  
Dew Point 58 °F    
Average Humidity 68    
Maximum Humidity 90    
Minimum Humidity 45    
Precipitation  
Precipitation 0.00 in 0.05 in 1.95 in (1936)
Month to date precipitation 3.74 1.12  
Year to date precipitation 8.34 10.05  
Sea Level Pressure  
Sea Level Pressure 29.95 in    
Wind  
Wind Speed 9 mph (SSE)    
Max Wind Speed 16 mph    
Max Gust Speed 23 mph    
Visibility 10 miles    
Events      
T = Trace of Precipitation, MM = Missing Value Source: NWS Daily Summary

Daily Weather History Graph

Daily Weather History Graph

Search for Another Location

Airport or City:

Trip Planner

Search our weather history database for the weather conditions in past years. The results will help you decide how hot, cold, wet, or windy it might be!

Date:

Astronomy

Sep. 21, 2013 Rise Set
Actual Time 6:45 AM MDT 6:55 PM MDT
Civil Twilight 6:21 AM MDT 7:20 PM MDT
Nautical Twilight 5:52 AM MDT 7:49 PM MDT
Astronomical Twilight 5:22 AM MDT 8:18 PM MDT
Moon 8:18 PM MDT (9/21) 8:57 AM MDT (9/21)
Length of Visible Light 12h 59m
Length of Day
12h 10m
Waning Gibbous, 94% of the Moon is Illuminated
Sep 21
Waning Gibbous
Sep 26
Last Quarter
Oct 4
New
Oct 11
First Quarter
Oct 18
Full

Hourly Weather History & Observations

Time (MDT) Temp. Dew Point Humidity Pressure Visibility Wind Dir Wind Speed Gust Speed Precip Events Conditions
12:51 AM 66.0 °F 60.1 °F 81% 29.98 in 10.0 mi Calm Calm - N/A   Mostly Cloudy
1:51 AM 64.0 °F 60.1 °F 87% 29.98 in 10.0 mi Calm Calm - N/A   Clear
2:34 AM 64.4 °F 60.8 °F 88% 30.13 in 10.0 mi Calm Calm - N/A   Mostly Cloudy
2:51 AM 64.0 °F 60.1 °F 87% 29.96 in 10.0 mi East 4.6 mph - N/A   Overcast
3:51 AM 64.0 °F 60.1 °F 87% 29.96 in 10.0 mi SE 4.6 mph - N/A   Overcast
4:27 AM 64.4 °F 60.8 °F 88% 30.12 in 10.0 mi SSE 6.9 mph - N/A   Mostly Cloudy
4:51 AM 63.0 °F 59.0 °F 87% 29.97 in 10.0 mi SSE 4.6 mph - N/A   Partly Cloudy
5:51 AM 61.0 °F 57.9 °F 90% 29.97 in 10.0 mi SSE 5.8 mph - N/A   Mostly Cloudy
6:11 AM 60.8 °F 57.2 °F 88% 30.13 in 10.0 mi SSE 6.9 mph - N/A   Overcast
6:51 AM 61.0 °F 57.9 °F 90% 29.98 in 10.0 mi SSE 8.1 mph - N/A   Overcast
7:51 AM 62.1 °F 57.9 °F 86% 30.00 in 10.0 mi SSE 6.9 mph - N/A   Overcast
8:51 AM 64.0 °F 57.9 °F 80% 30.00 in 10.0 mi South 10.4 mph - N/A   Overcast
9:51 AM 68.0 °F 57.9 °F 70% 30.00 in 10.0 mi SSE 9.2 mph - N/A   Scattered Clouds
10:14 AM 68.0 °F 57.2 °F 68% 30.15 in 10.0 mi SSE 10.4 mph - N/A   Mostly Cloudy
10:51 AM 70.0 °F 57.9 °F 65% 29.98 in 10.0 mi South 10.4 mph - N/A   Mostly Cloudy
11:51 AM 73.0 °F 57.0 °F 57% 29.96 in 10.0 mi SSE 10.4 mph - N/A   Scattered Clouds
12:24 PM 73.4 °F 57.2 °F 57% 30.11 in 1.8 mi South 8.1 mph 18.4 mph N/A   Haze
12:32 PM 73.4 °F 57.2 °F 57% 30.10 in 10.0 mi South 8.1 mph 16.1 mph N/A   Scattered Clouds
12:51 PM 75.0 °F 57.0 °F 53% 29.94 in 10.0 mi South 9.2 mph - N/A   Partly Cloudy
1:51 PM 77.0 °F 57.9 °F 52% 29.90 in 10.0 mi South 11.5 mph 18.4 mph N/A   Clear
2:51 PM 78.1 °F 57.0 °F 48% 29.87 in 10.0 mi South 10.4 mph 19.6 mph N/A   Clear
3:51 PM 79.0 °F 57.0 °F 47% 29.84 in 10.0 mi South 13.8 mph 21.9 mph N/A   Clear
4:51 PM 78.1 °F 55.9 °F 46% 29.83 in 10.0 mi South 11.5 mph - N/A   Clear
5:51 PM 78.1 °F 55.9 °F 46% 29.82 in 10.0 mi SSE 12.7 mph - N/A   Clear
6:51 PM 73.9 °F 57.0 °F 55% 29.82 in 10.0 mi SSE 11.5 mph - N/A   Clear
7:51 PM 71.1 °F 57.0 °F 61% 29.82 in 10.0 mi SSE 8.1 mph - N/A   Clear
8:51 PM 69.1 °F 57.0 °F 65% 29.84 in 10.0 mi South 8.1 mph - N/A   Clear
9:51 PM 64.9 °F 57.9 °F 78% 29.83 in 10.0 mi SSE 8.1 mph - N/A   Clear
10:51 PM 64.0 °F 57.9 °F 80% 29.83 in 10.0 mi SSE 6.9 mph - N/A   Clear
11:51 PM 63.0 °F 57.9 °F 84% 29.83 in 10.0 mi South 6.9 mph - N/A   Clear